Location: Le Sartre
(44.8050°N, 2.2123°E)
Time: 12:04:34
(UTC+00:00)

Ariane Rocket - Pass Details

Date: 15 May 2026
Orbit: 755 x 763 km, 98.4° (Epoch: 5 June)

Event Time Altitude Azimuth Distance (km) Brightness Sun altitude
Exits shadow 20:59:02 25° 135° (SE) 1,502 3.9 -15.5°
Maximum altitude 21:01:46 52° 71° (ENE) 943 3.3 -15.8°
Drops below altitude 10° 21:06:41 10° 356° (N) 2,306 6.3 -16.4°
Sets 21:09:02 0° 351° (N) 3,237 7.3 -16.7°
